• In Czech Republic
  • List of Countries
  • For 7 days
  • Water Temperature
  • Satellite Maps
  • Weather Map
  • Weather Widgets
  • user-avatar
    Login

    Hourly Weather Kalat

    Today, 17 February, Saturday

    Time Temperature Precipitation Wind Pressure Humidity
    00:00 -23°C° 0 mm 3 mps 467 mmHg 44%
    01:00 -24°C° 0 mm 3 mps 466 mmHg 40%
    02:00 -24°C° 0 mm 3 mps 466 mmHg 37%
    03:00 -24°C° 0 mm 3 mps 466 mmHg 34%
    04:00 -25°C° 0 mm 3 mps 466 mmHg 32%
    05:00 -25°C° 0 mm 3 mps 465 mmHg 30%
    06:00 -24°C° 0 mm 3 mps 466 mmHg 31%
    07:00 -24°C° 0 mm 3 mps 466 mmHg 31%
    08:00 -23°C° 0 mm 3 mps 466 mmHg 32%
    09:00 -19°C° 0 mm 3 mps 468 mmHg 34%
    10:00 -16°C° 0 mm 3 mps 470 mmHg 36%
    11:00 -12°C° 0 mm 2 mps 472 mmHg 37%
    12:00 -10°C° 0 mm 2 mps 472 mmHg 39%
    13:00 -12°C° 0 mm 3 mps 472 mmHg 41%
    14:00 -10°C° 0 mm 3 mps 472 mmHg 43%
    15:00 -13°C° 0 mm 3 mps 471 mmHg 48%
    16:00 -13°C° 0 mm 2 mps 469 mmHg 53%
    17:00 -15°C° 0 mm 2 mps 467 mmHg 65%
    18:00 -18°C° 0 mm 3 mps 467 mmHg 59%
    19:00 -21°C° 0 mm 3 mps 466 mmHg 54%
    20:00 -22°C° 0 mm 3 mps 465 mmHg 48%
    21:00 -22°C° 0 mm 3 mps 465 mmHg 44%
    22:00 -22°C° 0 mm 3 mps 466 mmHg 40%
    23:00 -22°C° 0 mm 3 mps 466 mmHg 36%

    Tomorrow, 18 February, Sunday

    Time Temperature Precipitation Wind Pressure Humidity
    00:00 -22°C° 0 mm 3 mps 466 mmHg 35%
    01:00 -21°C° 0 mm 3 mps 466 mmHg 33%
    02:00 -21°C° 0 mm 3 mps 466 mmHg 32%
    03:00 -21°C° 0 mm 3 mps 466 mmHg 33%
    04:00 -19°C° 0 mm 3 mps 466 mmHg 34%
    05:00 -19°C° 0 mm 3 mps 466 mmHg 35%
    06:00 -18°C° 0 mm 3 mps 467 mmHg 39%
    07:00 -18°C° 0 mm 3 mps 467 mmHg 43%
    08:00 -17°C° 0 mm 3 mps 468 mmHg 47%
    09:00 -15°C° 0 mm 3 mps 469 mmHg 48%
    10:00 -12°C° 0 mm 2 mps 470 mmHg 50%
    11:00 -8°C° 0 mm 2 mps 471 mmHg 51%
    12:00 -8°C° 0 mm 2 mps 471 mmHg 53%
    13:00 -7°C° 0 mm 2 mps 471 mmHg 56%
    14:00 -7°C° 0 mm 2 mps 472 mmHg 58%
    15:00 -8°C° 0 mm 2 mps 471 mmHg 63%
    16:00 -9°C° 0 mm 2 mps 470 mmHg 68%
    17:00 -10°C° 0 mm 2 mps 469 mmHg 72%
    18:00 -13°C° 0 mm 2 mps 468 mmHg 71%
    19:00 -16°C° 0 mm 3 mps 467 mmHg 70%
    20:00 -17°C° 0 mm 3 mps 467 mmHg 69%
    21:00 -17°C° 0 mm 3 mps 467 mmHg 67%
    22:00 -18°C° 0 mm 3 mps 467 mmHg 64%
    23:00 -18°C° 0 mm 3 mps 467 mmHg 62%

    Day after tomorrow, 19 February, Monday

    Time Temperature Precipitation Wind Pressure Humidity
    00:00 -18°C° 0 mm 3 mps 467 mmHg 59%
    01:00 -18°C° 0 mm 3 mps 467 mmHg 56%
    02:00 -18°C° 0 mm 3 mps 467 mmHg 54%
    03:00 -17°C° 0 mm 3 mps 467 mmHg 50%
    04:00 -17°C° 0 mm 3 mps 466 mmHg 47%
    05:00 -17°C° 0 mm 3 mps 466 mmHg 43%
    06:00 -17°C° 0 mm 3 mps 467 mmHg 40%
    07:00 -16°C° 0 mm 3 mps 467 mmHg 37%
    08:00 -16°C° 0 mm 3 mps 468 mmHg 34%
    09:00 -13°C° 0 mm 3 mps 470 mmHg 37%
    10:00 -8°C° 0 mm 2 mps 472 mmHg 41%
    11:00 -3°C° 0 mm 1 mps 474 mmHg 44%
    12:00 -4°C° 0 mm 2 mps 474 mmHg 48%
    13:00 -4°C° 0 mm 2 mps 474 mmHg 53%
    14:00 -3°C° 0 mm 2 mps 474 mmHg 57%
    15:00 -4°C° 0 mm 2 mps 474 mmHg 63%
    16:00 -2°C° 0 mm 1 mps 473 mmHg 68%
    17:00 -3°C° 0 mm 1 mps 473 mmHg 74%
    18:00 -4°C° 0.1 mm 1 mps 473 mmHg 76%
    19:00 -7°C° 0.1 mm 2 mps 472 mmHg 77%
    20:00 -8°C° 0.1 mm 2 mps 472 mmHg 79%
    21:00 -8°C° 0.1 mm 2 mps 472 mmHg 80%
    22:00 -8°C° 0.1 mm 2 mps 472 mmHg 80%
    23:00 -8°C° 0.1 mm 2 mps 472 mmHg 81%

    20 February, Tuesday

    Time Temperature Precipitation Wind Pressure Humidity
    00:00 -8°C° 0.1 mm 2 mps 471 mmHg 80%
    01:00 -10°C° 0.1 mm 3 mps 471 mmHg 80%
    02:00 -10°C° 0.1 mm 3 mps 470 mmHg 80%
    03:00 -10°C° 0 mm 3 mps 470 mmHg 80%
    04:00 -10°C° 0 mm 3 mps 470 mmHg 80%
    05:00 -10°C° 0 mm 3 mps 470 mmHg 80%
    06:00 -9°C° 0.1 mm 3 mps 471 mmHg 80%
    07:00 -9°C° 0.1 mm 3 mps 471 mmHg 81%
    08:00 -8°C° 0.1 mm 3 mps 472 mmHg 81%
    09:00 -7°C° 0.1 mm 3 mps 473 mmHg 81%
    10:00 -6°C° 0.1 mm 3 mps 474 mmHg 80%
    11:00 -4°C° 0.1 mm 4 mps 474 mmHg 80%
    12:00 -5°C° 0.3 mm 4 mps 474 mmHg 81%
    13:00 -5°C° 0.3 mm 4 mps 474 mmHg 82%
    14:00 -5°C° 0.3 mm 4 mps 473 mmHg 84%
    15:00 -5°C° 0.5 mm 3 mps 473 mmHg 85%
    16:00 -6°C° 0.5 mm 3 mps 473 mmHg 86%
    17:00 -6°C° 0.5 mm 3 mps 472 mmHg 87%
    18:00 -7°C° 0.5 mm 3 mps 472 mmHg 87%
    19:00 -8°C° 0.5 mm 3 mps 472 mmHg 87%
    20:00 -8°C° 0.5 mm 3 mps 472 mmHg 87%
    21:00 -9°C° 0.1 mm 3 mps 472 mmHg 87%
    22:00 -9°C° 0.1 mm 3 mps 472 mmHg 86%
    23:00 -10°C° 0.1 mm 3 mps 472 mmHg 86%

    21 February, Wednesday

    Time Temperature Precipitation Wind Pressure Humidity
    00:00 -10°C° 0.3 mm 3 mps 472 mmHg 86%
    01:00 -10°C° 0.3 mm 3 mps 472 mmHg 87%
    02:00 -9°C° 0.3 mm 2 mps 472 mmHg 87%
    03:00 -10°C° 0.1 mm 2 mps 470 mmHg 87%
    04:00 -12°C° 0.1 mm 2 mps 469 mmHg 86%
    05:00 -13°C° 0.1 mm 2 mps 468 mmHg 86%
    06:00 -13°C° 0.1 mm 2 mps 469 mmHg 85%
    07:00 -13°C° 0.1 mm 2 mps 470 mmHg 84%
    08:00 -12°C° 0.1 mm 2 mps 470 mmHg 84%
    09:00 -10°C° 0.1 mm 2 mps 471 mmHg 79%
    10:00 -8°C° 0.1 mm 2 mps 472 mmHg 75%
    11:00 -7°C° 0.1 mm 2 mps 473 mmHg 70%
    12:00 -6°C° 0.1 mm 2 mps 473 mmHg 70%
    13:00 -6°C° 0.1 mm 2 mps 473 mmHg 69%
    14:00 -6°C° 0.1 mm 2 mps 473 mmHg 69%
    15:00 -6°C° 0.1 mm 2 mps 472 mmHg 71%
    16:00 -7°C° 0.1 mm 2 mps 472 mmHg 74%
    17:00 -7°C° 0.1 mm 1 mps 471 mmHg 76%
    18:00 -9°C° 0 mm 1 mps 470 mmHg 76%
    19:00 -13°C° 0 mm 2 mps 469 mmHg 77%
    20:00 -14°C° 0 mm 2 mps 468 mmHg 77%
    21:00 -15°C° 0 mm 2 mps 468 mmHg 74%
    22:00 -15°C° 0 mm 2 mps 468 mmHg 72%
    23:00 -17°C° 0 mm 3 mps 468 mmHg 69%

    22 February, Thursday

    Time Temperature Precipitation Wind Pressure Humidity
    00:00 -17°C° 0 mm 3 mps 467 mmHg 68%
    01:00 -17°C° 0 mm 3 mps 467 mmHg 66%
    02:00 -17°C° 0 mm 3 mps 467 mmHg 64%
    03:00 -17°C° 0 mm 3 mps 467 mmHg 61%
    04:00 -17°C° 0 mm 3 mps 466 mmHg 57%
    05:00 -17°C° 0 mm 3 mps 466 mmHg 54%
    06:00 -17°C° 0 mm 3 mps 467 mmHg 52%
    07:00 -16°C° 0 mm 3 mps 467 mmHg 50%
    08:00 -16°C° 0 mm 3 mps 468 mmHg 49%
    09:00 -13°C° 0 mm 3 mps 469 mmHg 50%
    10:00 -9°C° 0 mm 2 mps 471 mmHg 51%
    11:00 -6°C° 0 mm 2 mps 472 mmHg 53%
    12:00 -6°C° 0 mm 2 mps 472 mmHg 55%
    13:00 -6°C° 0 mm 2 mps 472 mmHg 57%
    14:00 -5°C° 0 mm 2 mps 472 mmHg 59%
    15:00 -6°C° 0.1 mm 2 mps 472 mmHg 64%
    16:00 -7°C° 0.1 mm 2 mps 471 mmHg 69%
    17:00 -7°C° 0.1 mm 1 mps 470 mmHg 74%
    18:00 -9°C° 0 mm 2 mps 470 mmHg 75%
    19:00 -12°C° 0 mm 2 mps 469 mmHg 77%
    20:00 -13°C° 0 mm 2 mps 468 mmHg 78%
    21:00 -13°C° 0 mm 2 mps 469 mmHg 79%
    22:00 -13°C° 0 mm 2 mps 469 mmHg 79%
    23:00 -12°C° 0 mm 2 mps 469 mmHg 80%
    Show more